Time,TemperatureF,DewpointF,PressureIn,WindDirection,WindDirectionDegrees,WindSpeedMPH,WindSpeedGustMPH,Humidity,HourlyPrecipIn,Conditions,Clouds,dailyrainin,SolarRadiationWatts/m^2,SoftwareType,DateUTC
2014-10-02 00:00:00,47.0,46.5,29.60,NE,38,0.0,0.0,98,0.00,FEW,,0.00,0.0,WeatherDisplay:10.37,2014-10-01 11:00:00,
2014-10-02 00:05:00,47.0,46.2,29.60,NNE,21,6.9,6.9,97,0.00,FEW,,0.00,0.0,WeatherDisplay:10.37,2014-10-01 11:05:00,
2014-10-02 00:10:00,47.0,46.2,29.59,NNE,23,3.5,3.5,97,0.00,FEW,,0.00,0.0,WeatherDisplay:10.37,2014-10-01 11:10:00,
2014-10-02 00:15:00,47.0,45.9,29.59,NNE,23,0.0,0.0,96,0.00,FEW,,0.00,0.0,WeatherDisplay:10.37,2014-10-01 11:15:00,
2014-10-02 00:20:00,47.0,45.9,29.59,NNE,23,0.0,0.0,96,0.00,FEW,,0.00,0.0,WeatherDisplay:10.37,2014-10-01 11:20:00,
2014-10-02 00:25:00,46.0,44.6,29.59,NNE,23,0.0,0.0,95,0.00,FEW,,0.00,0.0,WeatherDisplay:10.37,2014-10-01 11:25:00,
2014-10-02 00:30:00,46.0,44.6,29.59,NNE,23,0.0,0.0,95,0.00,FEW,,0.00,0.0,WeatherDisplay:10.37,2014-10-01 11:30:00,
2014-10-02 00:35:00,46.0,44.6,29.59,NNE,23,0.0,0.0,95,0.00,FEW,,0.00,0.0,WeatherDisplay:10.37,2014-10-01 11:35:00,
2014-10-02 00:40:00,46.0,44.6,29.59,WNW,303,5.0,5.0,95,0.00,FEW,,0.00,0.0,WeatherDisplay:10.37,2014-10-01 11:40:00,
2014-10-02 00:45:00,45.0,43.1,29.59,WNW,300,3.5,3.5,93,0.00,FEW,,0.00,0.0,WeatherDisplay:10.37,2014-10-01 11:45:00,
2014-10-02 00:50:00,44.0,41.8,29.59,WNW,300,0.0,0.0,92,0.00,FEW,,0.00,0.0,WeatherDisplay:10.37,2014-10-01 11:50:00,
2014-10-02 00:55:00,44.0,41.8,29.58,WNW,299,0.0,0.0,92,0.00,FEW,,0.00,0.0,WeatherDisplay:10.37,2014-10-01 11:55:00,
2014-10-02 01:00:00,43.0,41.1,29.58,WNW,300,0.0,0.0,93,0.00,FEW,,0.00,0.0,WeatherDisplay:10.37,2014-10-01 12:00:00,
2014-10-02 01:05:00,43.0,41.1,29.58,WNW,299,0.0,0.0,93,0.00,FEW,,0.00,0.0,WeatherDisplay:10.37,2014-10-01 12:05:00,
2014-10-02 01:10:00,42.0,40.4,29.58,WNW,300,0.0,0.0,94,0.00,FEW,,0.00,0.0,WeatherDisplay:10.37,2014-10-01 12:10:00,
2014-10-02 01:15:00,42.0,40.7,29.57,WNW,300,0.0,0.0,95,0.00,FEW,,0.00,0.0,WeatherDisplay:10.37,2014-10-01 12:15:00,
2014-10-02 01:20:00,42.0,40.7,29.57,WNW,299,0.0,0.0,95,0.00,FEW,,0.00,0.0,WeatherDisplay:10.37,2014-10-01 12:20:00,
2014-10-02 01:25:00,42.0,40.7,29.57,WNW,300,0.0,0.0,95,0.00,FEW,,0.00,0.0,WeatherDisplay:10.37,2014-10-01 12:25:00,
2014-10-02 01:30:00,42.0,40.9,29.57,WNW,300,0.0,0.0,96,0.00,FEW,,0.00,0.0,WeatherDisplay:10.37,2014-10-01 12:30:00,
2014-10-02 01:35:00,42.0,40.9,29.57,WNW,299,0.0,0.0,96,0.00,FEW,,0.00,0.0,WeatherDisplay:10.37,2014-10-01 12:35:00,
2014-10-02 01:40:00,42.0,40.9,29.56,WNW,300,0.0,0.0,96,0.00,FEW,,0.00,0.0,WeatherDisplay:10.37,2014-10-01 12:40:00,
2014-10-02 01:45:00,42.0,40.9,29.56,WNW,299,0.0,0.0,96,0.00,FEW,,0.00,0.0,WeatherDisplay:10.37,2014-10-01 12:45:00,
2014-10-02 01:50:00,42.0,40.9,29.56,WNW,300,0.0,0.0,96,0.00,FEW,,0.00,0.0,WeatherDisplay:10.37,2014-10-01 12:50:00,
2014-10-02 01:55:00,42.0,40.9,29.56,WNW,300,0.0,0.0,96,0.00,FEW,,0.00,0.0,WeatherDisplay:10.37,2014-10-01 12:55:00,
2014-10-02 02:00:00,42.0,40.9,29.55,WNW,299,0.0,0.0,96,0.00,FEW,,0.00,0.0,WeatherDisplay:10.37,2014-10-01 13:00:00,
2014-10-02 02:05:00,42.0,40.9,29.55,WNW,300,0.0,0.0,96,0.00,FEW,,0.00,0.0,WeatherDisplay:10.37,2014-10-01 13:05:00,
2014-10-02 02:10:00,42.0,40.9,29.55,WNW,300,0.0,0.0,96,0.00,FEW,,0.00,0.0,WeatherDisplay:10.37,2014-10-01 13:10:00,
2014-10-02 02:15:00,41.0,39.9,29.54,WNW,300,0.0,0.0,96,0.00,FEW,,0.00,0.0,WeatherDisplay:10.37,2014-10-01 13:15:00,
2014-10-02 02:20:00,41.0,39.9,29.54,WNW,300,0.0,0.0,96,0.00,FEW,,0.00,0.0,WeatherDisplay:10.37,2014-10-01 13:20:00,
2014-10-02 02:25:00,41.0,39.9,29.54,WNW,299,0.0,0.0,96,0.00,FEW,,0.00,0.0,WeatherDisplay:10.37,2014-10-01 13:25:00,
2014-10-02 02:30:00,41.0,40.2,29.54,WNW,300,0.0,0.0,97,0.00,FEW,,0.00,0.0,WeatherDisplay:10.37,2014-10-01 13:30:00,
2014-10-02 02:35:00,41.0,40.2,29.54,WNW,300,0.0,0.0,97,0.00,FEW,,0.00,0.0,WeatherDisplay:10.37,2014-10-01 13:35:00,
2014-10-02 02:40:00,42.0,41.2,29.53,WNW,299,0.0,0.0,97,0.00,FEW,,0.00,0.0,WeatherDisplay:10.37,2014-10-01 13:40:00,
2014-10-02 02:44:00,42.0,41.2,29.53,WNW,299,0.0,0.0,97,0.00,FEW,,0.00,0.0,WeatherDisplay:10.37,2014-10-01 13:44:00,
2014-10-02 02:49:00,42.0,41.2,29.53,WNW,300,0.0,0.0,97,0.00,FEW,,0.00,0.0,WeatherDisplay:10.37,2014-10-01 13:49:00,
2014-10-02 02:54:00,42.0,41.2,29.52,WNW,300,0.0,0.0,97,0.00,FEW,,0.00,0.0,WeatherDisplay:10.37,2014-10-01 13:54:00,
2014-10-02 02:59:00,42.0,41.2,29.52,WNW,299,0.0,0.0,97,0.00,FEW,,0.00,0.0,WeatherDisplay:10.37,2014-10-01 13:59:00,
2014-10-02 03:04:00,42.0,41.2,29.52,WNW,300,0.0,0.0,97,0.00,FEW,,0.00,0.0,WeatherDisplay:10.37,2014-10-01 14:04:00,
2014-10-02 03:09:00,42.0,41.2,29.51,WNW,300,0.0,0.0,97,0.00,FEW,,0.00,0.0,WeatherDisplay:10.37,2014-10-01 14:09:00,
2014-10-02 03:11:00,42.0,41.2,29.51,WNW,300,0.0,0.0,97,0.00,FEW,,0.00,0.0,WeatherDisplay:10.37,2014-10-01 14:11:00,
2014-10-02 03:16:00,42.0,41.2,29.51,WNW,299,0.0,0.0,97,0.00,FEW,,0.00,0.0,WeatherDisplay:10.37,2014-10-01 14:16:00,
2014-10-02 03:21:00,42.0,41.2,29.51,WNW,299,0.0,0.0,97,0.00,FEW,,0.00,0.0,WeatherDisplay:10.37,2014-10-01 14:21:00,
2014-10-02 03:26:00,41.0,40.2,29.51,WNW,299,0.0,0.0,97,0.00,FEW,,0.00,0.0,WeatherDisplay:10.37,2014-10-01 14:26:00,
2014-10-02 03:31:00,41.0,40.2,29.51,WNW,298,3.5,3.5,97,0.00,FEW,,0.00,0.0,WeatherDisplay:10.37,2014-10-01 14:31:00,
2014-10-02 03:36:00,41.0,40.2,29.50,WNW,298,0.0,0.0,97,0.00,FEW,,0.00,0.0,WeatherDisplay:10.37,2014-10-01 14:36:00,
2014-10-02 03:41:00,41.0,40.2,29.50,WNW,298,0.0,0.0,97,0.00,FEW,,0.00,0.0,WeatherDisplay:10.37,2014-10-01 14:41:00,
2014-10-02 03:46:00,41.0,40.2,29.49,WNW,298,0.0,0.0,97,0.00,FEW,,0.00,0.0,WeatherDisplay:10.37,2014-10-01 14:46:00,
2014-10-02 03:51:00,41.0,40.2,29.49,WNW,298,0.0,0.0,97,0.00,FEW,,0.00,0.0,WeatherDisplay:10.37,2014-10-01 14:51:00,
2014-10-02 03:56:00,41.0,40.2,29.49,WNW,298,3.5,0.0,97,0.00,FEW,,0.00,0.0,WeatherDisplay:10.37,2014-10-01 14:56:00,
2014-10-02 04:01:00,41.0,40.2,29.49,WNW,298,0.0,0.0,97,0.00,FEW,,0.00,0.0,WeatherDisplay:10.37,2014-10-01 15:01:00,
2014-10-02 04:06:00,41.0,40.2,29.49,WNW,298,0.0,0.0,97,0.00,FEW,,0.00,0.0,WeatherDisplay:10.37,2014-10-01 15:06:00,
2014-10-02 04:11:00,41.0,40.2,29.49,WNW,298,0.0,0.0,97,0.00,FEW,,0.00,0.0,WeatherDisplay:10.37,2014-10-01 15:11:00,
2014-10-02 04:16:00,41.0,40.2,29.49,WNW,298,0.0,0.0,97,0.00,FEW,,0.00,0.0,WeatherDisplay:10.37,2014-10-01 15:16:00,
2014-10-02 04:21:00,41.0,40.2,29.49,WNW,298,0.0,0.0,97,0.00,FEW,,0.00,0.0,WeatherDisplay:10.37,2014-10-01 15:21:00,
2014-10-02 04:26:00,41.0,40.2,29.49,WNW,298,0.0,0.0,97,0.00,FEW,,0.00,0.0,WeatherDisplay:10.37,2014-10-01 15:26:00,
2014-10-02 04:31:00,41.0,40.2,29.48,WNW,298,0.0,0.0,97,0.00,FEW,,0.00,0.0,WeatherDisplay:10.37,2014-10-01 15:31:00,
2014-10-02 04:36:00,41.0,40.2,29.48,WNW,298,0.0,0.0,97,0.00,FEW,,0.00,0.0,WeatherDisplay:10.37,2014-10-01 15:36:00,
2014-10-02 04:40:00,41.0,40.2,29.48,WNW,298,0.0,0.0,97,0.00,FEW,,0.00,0.0,WeatherDisplay:10.37,2014-10-01 15:40:00,
2014-10-02 04:45:00,41.0,40.2,29.48,WNW,298,0.0,0.0,97,0.00,FEW,,0.00,0.0,WeatherDisplay:10.37,2014-10-01 15:45:00,
2014-10-02 04:50:00,41.0,40.2,29.48,WNW,298,0.0,0.0,97,0.00,FEW,,0.00,0.0,WeatherDisplay:10.37,2014-10-01 15:50:00,
2014-10-02 04:55:00,41.0,40.2,29.47,WNW,298,0.0,0.0,97,0.00,FEW,,0.00,0.0,WeatherDisplay:10.37,2014-10-01 15:55:00,
2014-10-02 05:00:00,41.0,40.2,29.47,WNW,298,0.0,0.0,97,0.00,FEW,,0.00,0.0,WeatherDisplay:10.37,2014-10-01 16:00:00,
2014-10-02 05:05:00,40.0,39.2,29.47,WNW,298,0.0,0.0,97,0.00,FEW,,0.00,0.0,WeatherDisplay:10.37,2014-10-01 16:05:00,
2014-10-02 05:10:00,40.0,39.2,29.47,WNW,298,0.0,0.0,97,0.00,FEW,,0.00,0.0,WeatherDisplay:10.37,2014-10-01 16:10:00,
2014-10-02 05:15:00,40.0,39.2,29.47,WNW,298,0.0,0.0,97,0.00,FEW,,0.00,0.0,WeatherDisplay:10.37,2014-10-01 16:15:00,
2014-10-02 05:20:00,40.0,39.2,29.46,WNW,298,0.0,0.0,97,0.00,FEW,,0.00,0.0,WeatherDisplay:10.37,2014-10-01 16:20:00,
2014-10-02 05:25:00,40.0,39.2,29.46,WNW,298,0.0,0.0,97,0.00,FEW,,0.00,0.0,WeatherDisplay:10.37,2014-10-01 16:25:00,
2014-10-02 05:30:00,40.0,39.2,29.46,WNW,298,0.0,0.0,97,0.00,FEW,,0.00,0.0,WeatherDisplay:10.37,2014-10-01 16:30:00,
2014-10-02 05:35:00,40.0,39.2,29.46,WNW,298,0.0,0.0,97,0.00,FEW,,0.00,0.0,WeatherDisplay:10.37,2014-10-01 16:35:00,
2014-10-02 05:40:00,40.0,39.2,29.46,WNW,298,0.0,0.0,97,0.00,FEW,,0.00,0.0,WeatherDisplay:10.37,2014-10-01 16:40:00,
2014-10-02 05:45:00,40.0,39.2,29.46,WNW,298,0.0,0.0,97,0.00,FEW,,0.00,0.0,WeatherDisplay:10.37,2014-10-01 16:45:00,
2014-10-02 05:50:00,40.0,39.2,29.45,WNW,298,0.0,0.0,97,0.00,FEW,,0.00,0.0,WeatherDisplay:10.37,2014-10-01 16:50:00,
2014-10-02 05:55:00,40.0,39.2,29.46,WNW,298,0.0,0.0,97,0.00,FEW,,0.00,0.0,WeatherDisplay:10.37,2014-10-01 16:55:00,
2014-10-02 06:00:00,39.0,38.2,29.45,WNW,298,0.0,0.0,97,0.00,FEW,,0.00,0.0,WeatherDisplay:10.37,2014-10-01 17:00:00,
2014-10-02 06:05:00,39.0,38.2,29.45,WNW,298,0.0,0.0,97,0.00,FEW,,0.00,0.0,WeatherDisplay:10.37,2014-10-01 17:05:00,
2014-10-02 06:10:00,39.0,38.2,29.45,WNW,298,0.0,0.0,97,0.00,FEW,,0.00,0.0,WeatherDisplay:10.37,2014-10-01 17:10:00,
2014-10-02 06:15:00,39.0,38.2,29.45,WNW,298,0.0,0.0,97,0.00,FEW,,0.00,0.0,WeatherDisplay:10.37,2014-10-01 17:15:00,
2014-10-02 06:20:00,39.0,38.2,29.45,WNW,298,0.0,0.0,97,0.00,FEW,,0.00,0.0,WeatherDisplay:10.37,2014-10-01 17:20:00,
2014-10-02 06:25:00,39.0,38.2,29.45,WNW,298,0.0,0.0,97,0.00,FEW,,0.00,0.0,WeatherDisplay:10.37,2014-10-01 17:25:00,
2014-10-02 06:30:00,39.0,38.2,29.45,WNW,298,5.0,5.0,97,0.00,FEW,,0.00,0.0,WeatherDisplay:10.37,2014-10-01 17:30:00,
2014-10-02 06:35:00,39.0,38.2,29.44,WNW,298,0.0,0.0,97,0.00,FEW,,0.00,0.0,WeatherDisplay:10.37,2014-10-01 17:35:00,
2014-10-02 06:39:00,39.0,38.2,29.44,WNW,298,0.0,0.0,97,0.00,FEW,,0.00,0.0,WeatherDisplay:10.37,2014-10-01 17:39:00,
2014-10-02 06:44:00,39.0,38.2,29.44,WNW,298,0.0,0.0,97,0.00,FEW,,0.00,0.0,WeatherDisplay:10.37,2014-10-01 17:44:00,
2014-10-02 06:49:00,39.0,38.2,29.44,WNW,298,1.2,0.0,97,0.00,FEW,,0.00,0.0,WeatherDisplay:10.37,2014-10-01 17:49:00,
2014-10-02 06:54:00,39.0,38.2,29.44,WNW,298,0.0,0.0,97,0.00,FEW,,0.00,0.0,WeatherDisplay:10.37,2014-10-01 17:54:00,
2014-10-02 06:59:00,38.0,37.2,29.44,WNW,298,2.3,2.3,97,0.00,FEW,,0.00,0.0,WeatherDisplay:10.37,2014-10-01 17:59:00,
2014-10-02 07:04:00,38.0,37.2,29.44,WNW,298,2.0,2.0,97,0.00,FEW,,0.00,5.0,WeatherDisplay:10.37,2014-10-01 18:04:00,
2014-10-02 07:09:00,38.0,37.2,29.44,WNW,298,0.0,0.0,97,0.00,FEW,,0.00,7.0,WeatherDisplay:10.37,2014-10-01 18:09:00,
2014-10-02 07:14:00,38.0,37.2,29.44,WNW,298,0.0,0.0,97,0.00,FEW,,0.00,11.0,WeatherDisplay:10.37,2014-10-01 18:14:00,
2014-10-02 07:19:00,37.0,36.0,29.44,WNW,298,0.0,0.0,96,0.00,FEW,,0.00,19.0,WeatherDisplay:10.37,2014-10-01 18:19:00,
2014-10-02 07:24:00,37.0,36.2,29.43,WNW,298,0.0,0.0,97,0.00,FEW,,0.00,18.0,WeatherDisplay:10.37,2014-10-01 18:24:00,